Regional Weather Roundup
Issued by NWS

Home | Current Version | Previous Version | Text Only | Print | Product List | Glossary On
Versions: 1 2 3 4 5 6 7 8 9 10 11 12 13 14 15 16 17 18 19 20 21 22 23 24 25 26 27
000
ASUS44 KBMX 190310
RWRAL

ALABAMA REGIONAL WEATHER ROUNDUP
NATIONAL WEATHER SERVICE BIRMINGHAM AL
900 PM CST SAT NOV 18 2017

NOTE: "FAIR" INDICATES FEW OR NO CLOUDS BELOW 12,000 FEET
WITH NO SIGNIFICANT WEATHER AND/OR OBSTRUCTIONS TO VISIBILITY.

THE REMARK "TC" DENOTES TEMPERATURE IN DEGREES CELSIUS.

ALZ001>011-014-016>018-020-190400-
NORTH ALABAMA

CITY           SKY/WX    TMP DP  RH WIND       PRES   REMARKS
MUSCLE SHOALS  CLOUDY    50  38  63 NW16G32   29.93R
HUNTSVILLE     CLOUDY    52  45  77 NW20G28   29.88R
DECATUR        CLOUDY    50  44  80 NW18G28   29.89R
HALEYVILLE     CLOUDY    49  41  74 NW20G30   29.93R
GADSDEN        CLOUDY    57  51  80 W15G25    29.83R
$$

ALZ012-013-022-023-030>036-040>044-190400-
WEST CENTRAL ALABAMA

CITY           SKY/WX    TMP DP  RH WIND       PRES   REMARKS
TUSCALOOSA     LGT RAIN  56  50  80 NW13G18   29.92R
DEMOPOLIS        N/A     60  54  79 NW14G23   29.90R
$$

ALZ015-024>026-033>036-041>044-190400-
CENTRAL ALABAMA

CITY           SKY/WX    TMP DP  RH WIND       PRES   REMARKS
BIRMINGHAM     LGT RAIN  55  49  80 NW16G29   29.89R
MONTGOMERY     PTCLDY    72  62  71 S16G25    29.75S
SHELBY CO ARPT CLOUDY    59  55  87 NW23G32   29.85R
MAXWELL AFB    CLOUDY    71  64  76 SW12G18   29.73R
GREENVILLE     MOCLDY    70  62  76 SW12G20   29.79S
SELMA          RAIN      63  61  94 NW28G37   29.83R
PRATTVILLE     CLOUDY    71  64  80 SW8G18    29.74S
BESSEMER       LGT RAIN  54  51  90 NW16G24   29.86R
TALLADEGA      CLOUDY    60  58  92 NW16G24   29.79R
PELL CITY      MOCLDY    59  55  88 W12G24    29.81R
MARION         CLOUDY    58  56  92 NW18G28   29.87R
SYLACAUGA      LGT RAIN  59  59 100 W16G29    29.81R
$$

ALZ019-021-028-029-037-038-045>048-190400-
EAST CENTRAL ALABAMA

CITY           SKY/WX    TMP DP  RH WIND       PRES   REMARKS
ANNISTON       CLOUDY    60  55  83 W16G26    29.79R
ALEXANDER CITY CLOUDY    69  62  77 SW9G22    29.74R
AUBURN         CLOUDY    68  63  84 SW17G23   29.77R
$$

ALZ051>064-190400-
SOUTHWEST ALABAMA

CITY           SKY/WX    TMP DP  RH WIND       PRES   REMARKS
MOBILE         MOCLDY    72  67  84 SW12      29.86S
BROOKLEY FIELD PTCLDY    74  69  85 SW8G17    29.86F
EVERGREEN      PTCLDY    71  64  78 SW15G22   29.83S
$$

ALZ049-050-065>069-190400-
SOUTHEAST ALABAMA

CITY           SKY/WX    TMP DP  RH WIND       PRES   REMARKS
DOTHAN         PTCLDY    67  65  93 S10       29.86F
OZARK          CLEAR     67  64  87 SW8       29.83S
TROY           CLOUDY    69  65  86 SW13      29.81S
EUFAULA        CLOUDY    70  65  84 S10G20    29.78F
$$




USA.gov is the U.S. government's official web portal to all federal, state and local government web resources and services.